Regional Weather Roundup
Issued by NWS

Home | Current Version | Previous Version | Graphics & Text | Print | Product List | Glossary On
Versions: 1 2 3 4 5 6 7 8 9 10 11 12 13 14 15 16 17 18 19 20 21 22 23 24 25 26 27
000
ASUS45 KCYS 191210
RWRWY

WYOMING REGIONAL WEATHER ROUNDUP
NATIONAL WEATHER SERVICE CHEYENNE WY
500 AM MST SUN FEB 19 2017

NOTE:  "FAIR" INDICATES FEW OR NO CLOUDS BELOW 12,000 FEET
WITH NO SIGNIFICANT WEATHER AND/OR OBSTRUCTIONS TO VISIBILITY.

WYZ001-191300-
YELLOWSTONE NATIONAL PARK

CITY           SKY/WX    TMP DP  RH WIND       PRES   REMARKS
LK YELLOWSTONE   N/A     30  30 100 CALM      29.56F
6HR MIN TEMP:  30; 6HR MAX TEMP:  31; 6HR PCP:  0.23;

W YELLOWSTONE  NOT AVBL

$$
WYZ002>013-054>058-071-098>099-191300-
NORTHERN WYOMING

CITY           SKY/WX    TMP DP  RH WIND       PRES   REMARKS
JACKSON        CLOUDY    34  34 100 S5        29.57S WCI  30
CODY           FAIR      33  27  78 CALM      29.49R
GREYBULL       FAIR      39  31  72 E7        29.50S WCI  34
6HR MIN TEMP:  39; 6HR MAX TEMP:  45;

WORLAND        FAIR      35  31  85 SE9       29.50F WCI  28
6HR MIN TEMP:  34; 6HR MAX TEMP:  39;

SHERIDAN       FAIR      33  29  85 VRB5      29.48R WCI  29
6HR MIN TEMP:  30; 6HR MAX TEMP:  35;

BUFFALO        FAIR      43  28  55 S17       29.48F
6HR MIN TEMP:  40; 6HR MAX TEMP:  51;

GILLETTE       FAIR      44  33  65 S25G32    29.51F
6HR MIN TEMP:  43; 6HR MAX TEMP:  48;

HULETT         FAIR      48  32  53 SW18G25   29.54S
NEWCASTLE      FAIR      39  30  70 CALM      29.61R

$$
WYZ014>020-022>026-101>103-191300-
CENTRAL WYOMING

CITY           SKY/WX    TMP DP  RH WIND       PRES   REMARKS
BIG PINEY      CLOUDY    31  29  92 S10       29.64S WCI  22
6HR MIN TEMP:  27; 6HR MAX TEMP:  31;

PINEDALE       CLOUDY    32  30  93 SE7       29.65F WCI  26
DUBOIS         PTSUNNY   36  28  75 E7        29.55R WCI  30
LANDER         FAIR      31  28  89 CALM      29.55
6HR MIN TEMP:  28; 6HR MAX TEMP:  38;

RIVERTON       FAIR      28  27  96 CALM      29.55S
6HR MIN TEMP:  27; 6HR MAX TEMP:  38;

CASPER         FAIR      41  30  65 SW15G26   29.61F
6HR MIN TEMP:  33; 6HR MAX TEMP:  42;

DOUGLAS        FAIR      44  29  55 W3        29.63S
6HR MIN TEMP:  31; 6HR MAX TEMP:  47;


$$
WYZ021-027>030-104>119-191300-
SOUTHERN WYOMING

CITY           SKY/WX    TMP DP  RH WIND       PRES   REMARKS
EVANSTON       CLOUDY    35  28  75 SW12      29.64S WCI  27
6HR MIN TEMP:  34; 6HR MAX TEMP:  37;

KEMMERER         N/A     30  30 100 E3        29.64S
FORT BRIDGER   CLOUDY    36  30  80 MISG      29.67S
ROCK SPRINGS   FAIR      39  30  70 S24G35    29.65S WCI  28
6HR MIN TEMP:  37; 6HR MAX TEMP:  41;

DIXON            N/A     32  30  92 SW3       29.76R
RAWLINS        FAIR      37  28  70 S5        29.70F WCI  33
6HR MIN TEMP:  33; 6HR MAX TEMP:  37;

SARATOGA       FAIR      32  30  93 SE7       29.72S WCI  26
LARAMIE        FAIR      24  22  91 S5        29.72F WCI  18
6HR MIN TEMP:  22; 6HR MAX TEMP:  30;

CHEYENNE       FAIR      37  25  61 W9        29.66F WCI  30
6HR MIN TEMP:  32; 6HR MAX TEMP:  38;

TORRINGTON     FAIR      34  25  69 CALM      29.64R
6HR MIN TEMP:  31; 6HR MAX TEMP:  40;

PINE BLUFFS    FAIR      30  25  80 W12G17    29.67R WCI  21

$$




USA.gov is the U.S. government's official web portal to all federal, state and local government web resources and services.